SCP
0 0 0 0 0 0 0 0 0 0 0 0 0 0 0 0 0 0 0 0 0 0 0 0 0 0 0 0 0 0 0 0 0 0 0 0 0 0 0 0 0 0 0 0 0 0 0 0 0 0 0 0 0 0
0 0 0 0 0 0 0 0 0 0 0 0 0 0 0 0 0 0 0 0 0 0 0 0 0 0 0 0 0 0 0 1 1 1 0 0 0 0 0 0 0 0 0 0 0 0 1 0 0 1 0 0 0 0
0 0 0 0 0 0 0 0 0 0 0 0 0 0 0 0 0 0 0 0 0 0 0 0 0 0 0 0 0 0 0 0 0 0 0 0 0 1 0 0 0 0 0 0 0 0 0 0 0 0 0 0 0 0
0 0 0 0 0 0 0 0 0 0 0 0 0 0 0 0 0 0 0 0 0 0 0 0 0 0 0 0 0 0 0 0 0 0 0 0 0 0 1 0 0 0 0 0 0 0 0 0 0 0 0 0 0 0
0 0 0 0 0 0 0 0 0 0 0 0 0 0 0 0 0 0 0 0 0 0 0 0 0 0 0 0 0 0 0 0 0 0 0 0 0 0 0 0 0 0 0 0 0 0 0 0 0 0 0 0 0 0
0 0 0 0 0 0 0 0 0 0 0 0 0 0 0 0 0 0 0 -0 0 0 0 0 0 0 0 0 0 0 0 0 0 0 0 0 0 0 0 0 0 0 0 0 1 1 1 1 0 0 0 0 0 0
0 0 0 0 0 0 0 0 0 0 0 0 0 0 0 0 0 0 0 0 0 0 0 0 0 0 0 0 0 0 0 0 0 0 0 0 0 0 0 0 0 0 0 0 0 0 0 0 0 0 0 0 0 0
0 0 0 0 0 0 0 0 0 0 0 0 0 0 0 0 0 0 0 0 0 0 0 0 0 0 0 0 0 0 0 0 0 0 0 0 0 0 0 0 0 0 0 0 0 1 0 0 0 0 0 0 0 0
0 0 0 0 0 0 0 0 0 0 0 0 0 0 0 0 0 0 0 0 0 0 0 0 0 0 0 0 0 0 0 0 0 0 0 0 0 0 0 0 0 0 0 0 0 0 0 0 0 0 0 0 0 0
0 0 0 0 0 0 0 0 0 0 0 0 0 0 0 0 0 0 0 0 0 0 0 0 0 0 0 0 0 0 0 0 0 0 0 0 0 0 0 0 0 0 0 0 0 0 0 0 0 0 0 0 0 0
-0 -0 0 0 0 0 -0 0 0 0 0 0 0 0 0 0 0 0 0 0 0 0 0 0 0 0 0 0 0 0 0 0 0 0 0 0 0 0 0 0 0 0 0 0 0 0 0 0 0 0 0 0 0 0
0 -0 -0 0 0 0 -0 -0 0 0 0 0 0 0 0 0 0 0 0 0 0 0 0 0 0 0 0 0 0 0 0 0 0 0 0 0 0 0 0 0 0 0 0 0 0 0 0 0 0 0 0 0 0 0
0 -0 -0 0 0 0 0 0 0 0 0 0 0 0 0 0 0 0 0 0 0 0 0 0 0 0 0 0 0 0 0 0 0 0 0 0 0 0 0 0 0 0 0 0 0 0 0 0 0 0 0 0 0 0
0 -0 -0 -0 0 0 0 0 0 0 0 0 0 0 0 0 0 0 0 0 0 0 0 0 0 0 0 0 0 0 0 0 0 0 0 0 0 0 0 0 0 0 0 0 0 0 0 0 0 0 0 0 0 0
-0 -0 -0 0 0 0 0 0 0 0 0 0 0 0 0 0 0 0 0 0 0 0 0 0 0 0 0 0 0 0 0 0 0 0 0 0 0 0 0 0 0 0 0 0 0 0 0 0 0 0 0 0 0 0
-0 0 0 0 0 0 0 0 0 0 0 0 0 0 0 0 0 0 0 0 0 0 0 0 0 0 0 0 0 0 0 0 0 0 0 0 0 0 0 0 0 0 0 0 0 0 0 0 0 0 0 0 0 0
0 0 0 0 0 0 0 0 0 0 0 0 0 0 0 0 0 0 0 0 0 0 0 0 0 0 0 0 0 0 0 0 0 0 0 0 0 0 0 0 0 0 0 0 0 0 0 0 0 0 0 0 0 0
0 0 0 0 0 0 0 0 0 0 0 0 0 0 0 0 0 0 0 0 0 0 0 0 0 0 0 0 0 0 0 0 0 0 0 0 0 0 0 0 0 0 0 0 0 0 0 0 0 0 0 0 0 0
0 0 0 0 0 0 0 0 0 0 0 0 0 -0 0 0 0 0 0 0 0 0 0 0 0 0 0 0 -0 0 0 0 0 0 0 0 0 0 0 0 0 0 0 0 0 0 0 0 0 0 0 0 0 0
0 0 0 0 0 0 0 0 0 0 0 0 0 0 0 0 0 0 0 0 0 0 0 0 0 0 0 0 0 0 0 0 0 0 0 0 0 0 0 0 0 0 0 0 0 0 0 0 0 0 0 0 0 0
0 0 0 0 0 0 0 0 0 0 0 0 0 0 0 0 0 0 0 0 0 0 0 0 0 0 0 0 0 0 0 0 0 0 0 0 0 0 0 0 0 0 0 0 0 0 0 0 0 0 0 0 0 0
0 0 0 0 0 0 0 0 0 0 0 0 0 0 0 0 0 0 0 0 0 0 0 0 0 0 0 0 0 0 0 0 0 0 0 0 0 0 0 0 0 0 0 0 0 0 0 0 0 0 0 0 0 0
0 0 0 0 0 0 0 0 0 0 0 0 0 0 0 0 -0 -0 -0 -0 -0 0 -0 -0 0 0 0 0 0 0 -0 -0 -0 -0 -0 0 0 0 0 0 0 0 0 0 0 0 0 0 0 0 0 0 0 0
0 0 0 0 0 0 0 0 0 0 0 0 0 0 -0 -0 -0 -0 -0 -0 -0 -0 0 0 -0 0 0 0 -0 -0 -0 -0 -0 -0 -0 -0 -0 0 0 0 0 0 0 0 0 0 0 0 0 0 0 0 0 0
0 0 0 0 0 0 0 0 0 0 0 0 0 0 -0 -0 -0 -0 0 -0 -0 -0 0 -0 0 -0 -0 -0 0 0 0 0 -0 0 -0 -0 -0 -0 -0 0 0 0 0 0 0 0 0 0 0 0 0 0 0 0
0 0 0 0 0 0 0 0 0 0 0 0 -0 0 -0 -0 0 0 0 0 0 0 -0 0 0 -0 -0 0 0 0 0 0 0 0 0 0 0 0 0 0 0 0 0 0 0 -0 0 0 0 0 0 0 0 0
0 0 0 0 0 0 0 0 0 0 0 0 0 0 0 0 0 0 0 0 0 0 0 0 0 0 -0 -0 0 0 0 0 0 0 0 0 0 0 0 0 0 0 0 0 0 0 0 0 0 0 0 -0 0 0
0 0 0 0 0 0 0 0 0 0 0 0 0 0 0 0 0 0 0 0 0 0 0 0 0 0 0 0 -0 0 0 0 0 0 0 0 0 0 0 0 0 0 0 0 0 -0 0 0 0 0 -0 -0 0 0
0 0 0 0 0 0 0 0 0 0 0 0 0 0 0 0 0 0 0 0 0 0 0 0 0 0 0 0 0 0 0 0 0 0 0 0 0 0 0 0 0 0 0 0 0 0 0 -0 -0 -0 0 -0 -0 -0
0 0 0 0 0 0 0 0 0 0 0 0 0 0 0 0 0 0 0 0 0 0 0 0 0 0 0 0 0 0 0 0 0 0 0 0 0 0 0 0 0 0 0 0 0 0 0 -0 0 0 0 0 0 0
0 0 0 0 0 0 0 0 0 0 0 0 0 0 0 0 0 0 0 0 0 0 0 0 0 0 0 0 0 0 0 0 0 0 0 0 0 0 0 0 0 0 0 0 0 0 0 0 -0 -0 -0 0 0 0
0 0 0 0 0 0 0 0 0 0 0 0 0 0 0 0 0 0 0 0 0 0 0 0 0 0 0 0 0 0 0 0 0 0 0 0 0 0 0 0 0 0 0 0 0 0 -0 -0 -0 -0 -0 -0 -0 -0
0 0 0 0 0 0 0 0 0 0 0 0 0 0 0 0 0 0 0 0 0 0 0 0 0 0 0 0 0 0 0 0 0 0 0 0 0 0 0 0 0 0 0 0 0 0 -0 0 0 -0 -0 -0 -0 -0
Wind_Speed_500mb
27 21 22 22 26 25 24 22 24 25 20 23 28 26 25 25 24 20 21 22 24 35 54 43 40 34 31 24 21 21 9 17 17 24 27 26 19 33 37 41 42 37 29 28 27 31 19 41 36 31 19 26 21 13
24 19 22 22 23 24 26 26 25 23 26 23 27 27 27 24 24 21 24 19 19 30 36 34 37 39 40 27 26 18 22 14 13 9 15 7 14 5 19 28 17 28 30 25 8 11 31 19 13 25 19 18 17 17
20 24 23 21 19 16 19 22 21 19 23 23 23 25 26 24 23 23 23 19 17 26 49 53 48 37 44 41 27 20 6 16 3 14 11 7 7 17 24 21 29 20 8 11 14 18 29 25 20 23 17 13 15 20
19 23 24 21 20 18 17 17 18 19 21 23 21 22 23 26 24 21 23 21 19 15 15 6 8 26 25 26 30 33 32 25 24 21 20 14 2 19 11 4 10 12 25 22 15 21 29 21 22 22 19 18 16 19
21 18 20 22 21 19 17 17 15 17 19 18 18 20 19 22 21 19 21 23 22 15 11 28 28 24 25 27 28 23 21 18 21 20 10 11 2 13 20 5 10 3 6 16 6 40 21 27 21 16 18 20 21 24
25 24 20 20 20 20 21 19 17 15 16 21 19 19 18 19 18 15 18 27 25 22 15 9 16 14 15 24 24 21 17 14 16 12 8 8 8 8 9 8 15 14 19 40 32 24 19 25 17 11 18 21 22 24
24 26 27 23 22 21 21 19 19 18 18 19 22 22 20 22 20 24 6 1 21 20 10 11 4 13 15 26 24 19 15 13 12 7 7 14 11 9 16 7 24 30 24 11 22 22 20 17 18 18 24 23 24 26
18 21 27 28 25 21 20 18 19 20 21 20 26 28 22 23 22 26 27 16 13 17 14 8 3 13 24 22 22 21 19 16 15 11 9 14 18 15 8 23 25 17 17 21 21 14 20 20 23 22 24 25 27 27
27 20 21 26 24 21 21 18 21 21 22 18 22 22 15 20 24 19 14 20 15 16 8 9 9 3 13 27 18 17 18 11 11 10 14 9 12 10 13 20 20 13 10 20 19 17 20 19 24 23 23 24 24 24
28 28 20 23 25 21 22 17 19 20 24 22 12 14 13 15 12 9 16 12 17 18 19 14 11 6 11 16 17 11 20 14 12 15 12 10 21 21 12 10 11 11 11 12 15 19 17 15 17 22 19 20 19 23
27 25 26 22 25 19 19 20 20 18 17 26 15 11 9 15 18 12 13 16 19 11 17 28 18 9 7 8 8 4 6 9 11 13 13 12 20 25 18 11 7 9 12 12 13 11 14 12 14 16 19 21 21 25
29 28 25 23 25 20 14 18 13 22 19 18 10 8 15 12 13 9 9 10 11 10 14 23 17 19 10 2 3 9 5 6 10 23 10 18 11 38 29 17 9 8 14 18 21 22 20 16 15 12 20 23 22 24
27 26 25 22 23 17 14 15 11 12 15 13 11 9 8 9 9 10 15 11 11 15 12 21 13 14 10 5 4 7 2 8 4 9 13 2 35 32 26 17 9 7 11 18 25 27 31 30 22 24 21 19 21 30
28 24 22 22 19 13 15 14 13 15 12 6 7 7 10 11 11 8 5 7 10 7 18 23 16 10 10 12 1 6 8 9 12 12 19 18 28 24 21 16 12 7 7 13 22 26 25 27 30 33 32 28 26 28
25 22 22 23 15 13 16 15 17 10 7 7 8 8 12 8 12 6 4 2 8 11 12 22 10 8 6 5 6 7 10 9 11 4 18 34 30 26 21 15 12 10 9 12 17 21 23 23 24 28 33 34 32 30
25 23 19 20 15 19 22 15 8 4 6 7 9 9 9 9 6 5 2 6 7 13 18 4 5 5 5 4 12 11 5 3 6 13 33 30 30 26 21 17 14 12 11 11 16 14 13 18 19 19 27 32 35 38
23 13 24 18 21 14 11 7 7 8 8 7 6 14 11 9 7 7 4 5 10 22 8 7 9 9 5 7 6 5 8 13 26 29 33 32 28 21 17 15 14 13 13 11 10 10 10 14 12 17 27 34 35 33
13 25 25 24 15 11 5 4 5 6 9 11 10 2 3 5 6 10 12 7 10 13 13 8 6 6 4 6 6 10 24 22 21 26 24 23 21 17 12 11 11 11 10 11 9 11 16 13 12 14 25 34 39 40
23 25 20 14 9 5 5 6 7 8 7 6 3 13 6 6 8 8 9 13 17 12 6 3 5 5 2 2 15 15 19 22 20 18 19 17 14 11 5 5 5 6 6 7 10 10 11 16 22 23 27 36 38 42
24 20 13 6 3 4 5 4 4 9 5 4 4 2 6 13 12 10 10 10 9 7 6 4 1 7 7 5 6 9 11 9 11 19 18 19 17 12 9 4 2 0 3 2 5 11 9 14 15 25 23 32 41 42
17 5 7 5 4 4 4 5 6 4 8 5 2 3 3 12 10 9 6 5 13 5 2 2 4 9 3 8 11 13 16 16 18 17 15 14 15 17 17 16 11 8 6 2 1 4 9 12 17 21 35 32 34 36
6 6 1 2 4 5 5 4 7 7 6 3 4 4 2 3 4 5 7 6 2 1 7 10 13 17 20 24 27 27 28 25 28 30 30 26 20 20 21 19 17 15 13 10 10 9 11 12 20 21 31 42 46 50
8 9 3 6 4 4 5 7 5 6 4 5 5 3 0 5 6 7 6 3 8 12 11 17 23 30 39 42 44 44 42 41 44 44 40 37 33 31 28 24 23 20 18 17 15 15 14 17 19 24 20 40 57 60
11 6 6 6 5 5 4 4 6 6 4 4 4 4 3 7 9 6 8 9 9 27 36 43 41 39 37 35 36 39 36 40 48 52 50 48 44 40 36 32 26 25 22 17 18 18 18 22 23 26 35 52 62 58
4 9 7 7 3 4 2 5 5 4 4 8 7 6 5 4 4 6 8 17 36 52 49 42 39 32 32 29 24 20 16 25 36 44 44 49 47 38 37 33 31 27 27 22 22 23 16 25 29 27 47 69 69 60
6 10 10 15 12 8 10 8 7 9 7 11 10 15 13 7 5 6 9 36 41 50 49 46 45 39 28 17 16 11 7 18 23 34 34 46 49 48 46 43 37 31 31 25 26 26 24 27 31 54 80 65 53 47
5 5 6 6 5 9 7 5 9 10 6 9 9 12 8 10 12 12 32 42 52 48 42 37 32 23 18 13 6 5 13 20 23 31 29 41 43 44 42 40 35 26 31 29 31 32 45 44 61 71 49 48 43 42
6 6 5 8 3 9 13 11 12 14 9 17 9 12 8 13 8 20 35 58 56 51 46 32 27 28 24 23 20 14 15 21 29 33 43 40 35 38 36 27 28 31 32 33 36 41 54 60 58 53 52 45 40 39
4 6 7 7 14 16 15 14 15 14 19 16 9 8 8 11 32 45 63 58 53 60 74 66 62 55 53 46 42 33 44 51 59 63 62 56 49 41 37 34 39 32 33 37 39 52 47 55 55 57 40 39 38 39
14 13 17 21 18 10 18 15 12 20 20 19 11 9 19 45 57 61 58 67 75 73 71 73 73 73 62 60 57 49 52 45 46 53 58 54 54 50 48 46 42 40 42 43 47 51 59 61 52 45 41 42 41 38
6 13 21 21 13 17 18 16 18 20 24 20 22 23 21 23 48 57 60 59 63 70 74 76 82 82 65 66 63 68 54 61 48 55 56 57 53 53 52 46 41 40 44 59 66 66 66 46 44 44 42 39 37 36
11 12 14 9 14 15 12 9 11 12 13 14 20 22 15 13 21 35 54 52 48 51 58 56 63 68 71 76 76 84 82 77 74 64 57 57 51 47 49 52 56 78 78 75 59 47 46 44 42 40 39 38 37 33
19 18 16 12 8 7 9 7 5 7 11 10 14 17 17 11 12 23 31 41 41 40 44 44 47 54 63 66 68 79 79 77 71 69 71 70 71 68 69 67 69 73 60 46 46 45 42 42 41 40 38 36 34 32
Wind_Direction_500mb
250 254 239 241 251 254 254 257 254 253 257 240 240 242 242 241 243 246 254 242 235 258 270 278 277 285 297 281 290 6 214 213 226 230 239 224 225 211 216 207 194 201 208 222 224 249 216 148 165 203 98 114 120 132
240 237 240 246 257 257 254 250 256 254 247 257 242 240 237 243 239 244 254 255 237 250 257 280 270 261 259 265 305 297 318 326 351 260 245 5 235 315 215 203 179 223 211 219 266 268 113 168 174 115 132 133 134 139
242 239 246 249 244 255 256 248 250 258 251 248 242 242 237 222 237 232 252 250 242 272 282 257 253 257 241 244 243 270 89 -0 315 344 322 303 254 300 212 244 172 163 227 198 119 141 150 141 131 137 149 148 141 135
249 242 240 244 244 253 252 255 258 268 253 250 240 231 232 224 236 236 245 246 248 270 276 233 207 230 234 223 225 241 263 301 295 290 272 260 67 349 327 83 141 324 169 184 153 164 130 155 135 114 122 138 150 146
241 241 236 233 245 248 251 252 263 265 249 239 232 228 227 226 230 240 254 246 242 227 303 304 297 252 235 223 217 235 242 270 282 258 237 263 122 199 236 49 106 260 51 213 171 170 192 145 134 139 147 153 156 148
242 236 235 233 238 245 245 259 253 260 250 237 235 230 225 225 227 246 258 230 223 218 277 288 215 218 216 203 202 208 214 239 254 278 337 243 283 311 308 202 107 110 37 304 106 89 79 114 128 162 159 160 158 150
243 236 234 235 237 246 246 251 247 249 248 243 235 229 231 218 223 232 266 69 186 204 246 267 187 173 185 178 180 190 201 218 239 254 233 308 237 261 242 244 131 156 165 95 92 109 108 127 145 163 156 153 150 144
249 237 233 235 238 242 234 248 252 249 260 254 247 226 213 221 236 246 249 246 196 225 254 275 264 218 179 189 187 197 193 200 201 237 188 209 290 245 247 105 151 146 125 117 118 104 121 151 150 154 154 154 148 147
239 238 234 228 230 233 229 245 260 248 254 267 246 202 215 229 232 234 199 220 218 226 275 254 255 158 187 223 186 184 219 199 160 228 216 197 210 226 87 134 130 115 136 134 137 130 129 142 157 164 164 163 165 159
237 231 236 227 223 226 224 251 253 238 261 246 167 183 218 210 211 166 173 197 203 215 226 255 274 180 276 204 186 208 197 237 192 210 174 225 222 102 126 99 128 127 134 142 169 161 157 155 168 171 182 183 185 180
231 229 227 225 217 224 227 257 256 243 216 192 204 220 197 181 179 195 214 199 197 215 211 227 234 219 189 272 219 261 247 205 229 172 204 208 215 185 176 157 145 179 190 190 187 189 191 206 196 194 193 194 196 185
226 222 220 218 211 214 238 253 208 185 189 198 199 192 167 190 204 218 201 200 220 223 183 180 186 199 179 271 305 216 252 268 212 146 209 226 197 172 164 169 166 204 213 215 217 216 214 213 215 207 195 180 187 175
206 204 205 205 202 209 233 235 168 199 160 191 210 192 198 199 206 221 196 189 196 192 152 157 154 174 163 187 175 252 230 251 250 218 208 178 135 151 147 159 158 189 204 213 214 215 220 216 208 205 203 176 185 177
189 194 194 190 190 205 205 202 192 194 192 236 193 199 224 201 224 216 230 54 97 153 177 171 139 168 148 173 222 248 205 261 198 217 198 140 149 146 159 150 151 120 141 183 196 201 208 212 213 207 207 200 194 193
175 176 180 180 184 184 199 194 193 175 218 242 225 242 223 247 261 281 34 89 101 145 166 138 162 123 113 140 213 257 227 200 197 150 110 134 144 143 144 147 131 107 120 160 182 193 197 192 192 194 199 201 201 193
163 158 172 179 178 155 141 139 145 204 267 251 245 274 303 315 292 272 205 206 208 158 135 109 108 101 127 235 224 214 187 261 58 105 131 138 138 137 126 121 115 107 105 137 174 181 189 193 189 190 190 187 187 185
137 161 172 157 149 133 135 151 195 223 240 253 288 269 267 295 333 291 292 282 158 164 162 170 184 168 209 258 202 266 47 73 101 119 132 143 140 116 112 106 97 95 93 100 131 165 178 175 178 179 181 179 177 174
124 147 143 141 131 114 151 233 258 249 249 217 240 245 333 261 227 234 211 223 182 177 189 204 159 164 188 237 192 116 109 99 116 127 140 138 133 131 116 97 82 76 75 78 84 103 108 138 157 165 169 171 167 160
139 141 142 154 175 211 220 212 240 263 214 243 12 58 354 185 210 174 188 185 181 195 233 222 209 201 173 94 126 112 121 133 145 150 154 162 165 171 130 78 61 61 65 69 82 90 120 146 140 142 159 160 154 156
134 130 125 132 178 265 234 208 235 272 262 15 350 223 200 128 126 145 145 153 178 207 212 208 155 171 166 10 10 34 85 129 172 184 192 191 197 201 204 201 164 5 26 65 87 118 124 151 146 159 158 165 155 157
111 111 63 67 258 289 300 313 282 318 323 330 349 50 135 126 142 162 160 194 211 237 189 63 97 77 6 308 280 270 257 245 242 238 242 223 210 212 206 232 233 228 220 187 205 180 159 183 157 167 161 156 154 158
100 30 11 1 330 339 289 319 298 327 295 315 12 52 51 79 82 50 336 238 241 46 5 344 329 326 291 277 270 260 255 260 243 241 236 232 230 221 215 214 213 214 215 199 210 203 176 154 166 170 174 170 167 156
13 26 27 18 337 331 306 335 312 342 315 11 341 277 350 353 15 325 251 240 78 42 349 315 312 296 286 279 271 263 255 246 241 236 232 230 228 223 220 218 215 214 211 206 202 193 174 184 176 177 168 164 164 159
23 32 6 356 333 319 318 316 307 302 302 264 282 307 31 353 309 247 272 119 66 342 327 317 314 308 301 287 273 269 259 246 238 233 227 221 218 218 215 213 212 210 200 200 192 183 198 186 184 186 167 160 160 156
1 10 335 288 311 305 11 0 322 298 332 353 323 0 346 298 286 16 4 346 340 325 321 326 325 320 304 300 295 260 245 231 225 224 222 216 214 205 204 204 201 204 194 188 187 184 195 187 182 182 173 161 150 145
57 38 20 6 2 9 349 339 9 355 345 1 12 340 350 21 3 4 7 332 322 329 337 337 333 332 335 326 308 305 205 210 207 210 214 206 201 195 186 185 188 199 188 181 180 187 182 171 170 163 149 144 141 145
57 52 9 11 326 313 286 341 11 28 17 10 357 348 14 5 14 359 320 341 345 2 6 3 354 342 320 316 10 327 205 193 199 203 195 183 185 182 176 178 181 180 172 169 173 176 156 142 151 143 142 146 148 152
50 54 55 51 50 45 9 26 23 14 10 355 351 25 33 9 347 313 327 11 16 17 24 50 66 74 71 57 76 69 126 147 154 159 149 149 161 163 157 164 158 157 164 167 171 168 161 159 163 159 143 146 149 152
58 46 28 45 70 63 33 17 23 23 6 10 17 35 27 2 11 5 21 24 30 38 52 63 65 65 64 82 82 100 106 117 127 133 133 135 138 143 152 154 148 159 168 166 169 162 162 158 152 146 145 148 148 147
21 15 76 55 58 55 38 55 54 51 52 43 27 23 39 49 47 44 36 35 41 39 42 55 55 49 56 65 83 89 88 119 123 124 127 133 137 135 145 147 147 155 157 147 142 149 150 141 132 137 145 144 145 147
60 69 76 76 73 96 91 79 67 60 57 48 39 30 26 37 47 46 46 40 38 47 45 40 42 41 54 71 86 89 88 93 107 108 115 125 130 132 135 132 133 135 139 143 137 139 140 133 142 146 145 144 145 147
88 104 94 95 105 101 104 60 55 51 42 35 24 23 32 35 33 24 30 28 33 34 34 34 34 42 54 73 85 87 90 90 96 99 110 117 118 115 120 121 127 126 124 123 122 125 138 142 142 143 145 147 148 150
94 95 98 97 106 105 79 101 88 74 57 52 36 28 27 41 48 19 25 27 28 27 26 34 41 49 53 57 76 81 88 90 93 93 92 95 100 104 108 113 120 120 117 120 126 131 134 136 137 139 141 143 145 145
Wind_Speed_850mb
27 21 22 22 26 25 24 22 24 25 20 23 28 26 25 25 24 20 21 22 24 35 54 43 40 34 31 24 21 21 9 17 17 24 27 26 19 33 37 41 42 37 29 28 27 31 19 41 36 31 19 26 21 13
24 19 22 22 23 24 26 26 25 23 26 23 27 27 27 24 24 21 24 19 19 30 36 34 37 39 40 27 26 18 22 14 13 9 15 7 14 5 19 28 17 28 30 25 8 11 31 19 13 25 19 18 17 17
20 24 23 21 19 16 19 22 21 19 23 23 23 25 26 24 23 23 23 19 17 26 49 53 48 37 44 41 27 20 6 16 3 14 11 7 7 17 24 21 29 20 8 11 14 18 29 25 20 23 17 13 15 20
19 23 24 21 20 18 17 17 18 19 21 23 21 22 23 26 24 21 23 21 19 15 15 6 8 26 25 26 30 33 32 25 24 21 20 14 2 19 11 4 10 12 25 22 15 21 29 21 22 22 19 18 16 19
21 18 20 22 21 19 17 17 15 17 19 18 18 20 19 22 21 19 21 23 22 15 11 28 28 24 25 27 28 23 21 18 21 20 10 11 2 13 20 5 10 3 6 16 6 40 21 27 21 16 18 20 21 24
25 24 20 20 20 20 21 19 17 15 16 21 19 19 18 19 18 15 18 27 25 22 15 9 16 14 15 24 24 21 17 14 16 12 8 8 8 8 9 8 15 14 19 40 32 24 19 25 17 11 18 21 22 24
24 26 27 23 22 21 21 19 19 18 18 19 22 22 20 22 20 24 6 1 21 20 10 11 4 13 15 26 24 19 15 13 12 7 7 14 11 9 16 7 24 30 24 11 22 22 20 17 18 18 24 23 24 26
18 21 27 28 25 21 20 18 19 20 21 20 26 28 22 23 22 26 27 16 13 17 14 8 3 13 24 22 22 21 19 16 15 11 9 14 18 15 8 23 25 17 17 21 21 14 20 20 23 22 24 25 27 27
27 20 21 26 24 21 21 18 21 21 22 18 22 22 15 20 24 19 14 20 15 16 8 9 9 3 13 27 18 17 18 11 11 10 14 9 12 10 13 20 20 13 10 20 19 17 20 19 24 23 23 24 24 24
28 28 20 23 25 21 22 17 19 20 24 22 12 14 13 15 12 9 16 12 17 18 19 14 11 6 11 16 17 11 20 14 12 15 12 10 21 21 12 10 11 11 11 12 15 19 17 15 17 22 19 20 19 23
27 25 26 22 25 19 19 20 20 18 17 26 15 11 9 15 18 12 13 16 19 11 17 28 18 9 7 8 8 4 6 9 11 13 13 12 20 25 18 11 7 9 12 12 13 11 14 12 14 16 19 21 21 25
29 28 25 23 25 20 14 18 13 22 19 18 10 8 15 12 13 9 9 10 11 10 14 23 17 19 10 2 3 9 5 6 10 23 10 18 11 38 29 17 9 8 14 18 21 22 20 16 15 12 20 23 22 24
27 26 25 22 23 17 14 15 11 12 15 13 11 9 8 9 9 10 15 11 11 15 12 21 13 14 10 5 4 7 2 8 4 9 13 2 35 32 26 17 9 7 11 18 25 27 31 30 22 24 21 19 21 30
28 24 22 22 19 13 15 14 13 15 12 6 7 7 10 11 11 8 5 7 10 7 18 23 16 10 10 12 1 6 8 9 12 12 19 18 28 24 21 16 12 7 7 13 22 26 25 27 30 33 32 28 26 28
25 22 22 23 15 13 16 15 17 10 7 7 8 8 12 8 12 6 4 2 8 11 12 22 10 8 6 5 6 7 10 9 11 4 18 34 30 26 21 15 12 10 9 12 17 21 23 23 24 28 33 34 32 30
25 23 19 20 15 19 22 15 8 4 6 7 9 9 9 9 6 5 2 6 7 13 18 4 5 5 5 4 12 11 5 3 6 13 33 30 30 26 21 17 14 12 11 11 16 14 13 18 19 19 27 32 35 38
23 13 24 18 21 14 11 7 7 8 8 7 6 14 11 9 7 7 4 5 10 22 8 7 9 9 5 7 6 5 8 13 26 29 33 32 28 21 17 15 14 13 13 11 10 10 10 14 12 17 27 34 35 33
13 25 25 24 15 11 5 4 5 6 9 11 10 2 3 5 6 10 12 7 10 13 13 8 6 6 4 6 6 10 24 22 21 26 24 23 21 17 12 11 11 11 10 11 9 11 16 13 12 14 25 34 39 40
23 25 20 14 9 5 5 6 7 8 7 6 3 13 6 6 8 8 9 13 17 12 6 3 5 5 2 2 15 15 19 22 20 18 19 17 14 11 5 5 5 6 6 7 10 10 11 16 22 23 27 36 38 42
24 20 13 6 3 4 5 4 4 9 5 4 4 2 6 13 12 10 10 10 9 7 6 4 1 7 7 5 6 9 11 9 11 19 18 19 17 12 9 4 2 0 3 2 5 11 9 14 15 25 23 32 41 42
17 5 7 5 4 4 4 5 6 4 8 5 2 3 3 12 10 9 6 5 13 5 2 2 4 9 3 8 11 13 16 16 18 17 15 14 15 17 17 16 11 8 6 2 1 4 9 12 17 21 35 32 34 36
6 6 1 2 4 5 5 4 7 7 6 3 4 4 2 3 4 5 7 6 2 1 7 10 13 17 20 24 27 27 28 25 28 30 30 26 20 20 21 19 17 15 13 10 10 9 11 12 20 21 31 42 46 50
8 9 3 6 4 4 5 7 5 6 4 5 5 3 0 5 6 7 6 3 8 12 11 17 23 30 39 42 44 44 42 41 44 44 40 37 33 31 28 24 23 20 18 17 15 15 14 17 19 24 20 40 57 60
11 6 6 6 5 5 4 4 6 6 4 4 4 4 3 7 9 6 8 9 9 27 36 43 41 39 37 35 36 39 36 40 48 52 50 48 44 40 36 32 26 25 22 17 18 18 18 22 23 26 35 52 62 58
4 9 7 7 3 4 2 5 5 4 4 8 7 6 5 4 4 6 8 17 36 52 49 42 39 32 32 29 24 20 16 25 36 44 44 49 47 38 37 33 31 27 27 22 22 23 16 25 29 27 47 69 69 60
6 10 10 15 12 8 10 8 7 9 7 11 10 15 13 7 5 6 9 36 41 50 49 46 45 39 28 17 16 11 7 18 23 34 34 46 49 48 46 43 37 31 31 25 26 26 24 27 31 54 80 65 53 47
5 5 6 6 5 9 7 5 9 10 6 9 9 12 8 10 12 12 32 42 52 48 42 37 32 23 18 13 6 5 13 20 23 31 29 41 43 44 42 40 35 26 31 29 31 32 45 44 61 71 49 48 43 42
6 6 5 8 3 9 13 11 12 14 9 17 9 12 8 13 8 20 35 58 56 51 46 32 27 28 24 23 20 14 15 21 29 33 43 40 35 38 36 27 28 31 32 33 36 41 54 60 58 53 52 45 40 39
4 6 7 7 14 16 15 14 15 14 19 16 9 8 8 11 32 45 63 58 53 60 74 66 62 55 53 46 42 33 44 51 59 63 62 56 49 41 37 34 39 32 33 37 39 52 47 55 55 57 40 39 38 39
14 13 17 21 18 10 18 15 12 20 20 19 11 9 19 45 57 61 58 67 75 73 71 73 73 73 62 60 57 49 52 45 46 53 58 54 54 50 48 46 42 40 42 43 47 51 59 61 52 45 41 42 41 38
6 13 21 21 13 17 18 16 18 20 24 20 22 23 21 23 48 57 60 59 63 70 74 76 82 82 65 66 63 68 54 61 48 55 56 57 53 53 52 46 41 40 44 59 66 66 66 46 44 44 42 39 37 36
11 12 14 9 14 15 12 9 11 12 13 14 20 22 15 13 21 35 54 52 48 51 58 56 63 68 71 76 76 84 82 77 74 64 57 57 51 47 49 52 56 78 78 75 59 47 46 44 42 40 39 38 37 33
19 18 16 12 8 7 9 7 5 7 11 10 14 17 17 11 12 23 31 41 41 40 44 44 47 54 63 66 68 79 79 77 71 69 71 70 71 68 69 67 69 73 60 46 46 45 42 42 41 40 38 36 34 32
Wind_Direction_850mb
250 254 239 241 251 254 254 257 254 253 257 240 240 242 242 241 243 246 254 242 235 258 270 278 277 285 297 281 290 6 214 213 226 230 239 224 225 211 216 207 194 201 208 222 224 249 216 148 165 203 98 114 120 132
240 237 240 246 257 257 254 250 256 254 247 257 242 240 237 243 239 244 254 255 237 250 257 280 270 261 259 265 305 297 318 326 351 260 245 5 235 315 215 203 179 223 211 219 266 268 113 168 174 115 132 133 134 139
242 239 246 249 244 255 256 248 250 258 251 248 242 242 237 222 237 232 252 250 242 272 282 257 253 257 241 244 243 270 89 -0 315 344 322 303 254 300 212 244 172 163 227 198 119 141 150 141 131 137 149 148 141 135
249 242 240 244 244 253 252 255 258 268 253 250 240 231 232 224 236 236 245 246 248 270 276 233 207 230 234 223 225 241 263 301 295 290 272 260 67 349 327 83 141 324 169 184 153 164 130 155 135 114 122 138 150 146
241 241 236 233 245 248 251 252 263 265 249 239 232 228 227 226 230 240 254 246 242 227 303 304 297 252 235 223 217 235 242 270 282 258 237 263 122 199 236 49 106 260 51 213 171 170 192 145 134 139 147 153 156 148
242 236 235 233 238 245 245 259 253 260 250 237 235 230 225 225 227 246 258 230 223 218 277 288 215 218 216 203 202 208 214 239 254 278 337 243 283 311 308 202 107 110 37 304 106 89 79 114 128 162 159 160 158 150
243 236 234 235 237 246 246 251 247 249 248 243 235 229 231 218 223 232 266 69 186 204 246 267 187 173 185 178 180 190 201 218 239 254 233 308 237 261 242 244 131 156 165 95 92 109 108 127 145 163 156 153 150 144
249 237 233 235 238 242 234 248 252 249 260 254 247 226 213 221 236 246 249 246 196 225 254 275 264 218 179 189 187 197 193 200 201 237 188 209 290 245 247 105 151 146 125 117 118 104 121 151 150 154 154 154 148 147
239 238 234 228 230 233 229 245 260 248 254 267 246 202 215 229 232 234 199 220 218 226 275 254 255 158 187 223 186 184 219 199 160 228 216 197 210 226 87 134 130 115 136 134 137 130 129 142 157 164 164 163 165 159
237 231 236 227 223 226 224 251 253 238 261 246 167 183 218 210 211 166 173 197 203 215 226 255 274 180 276 204 186 208 197 237 192 210 174 225 222 102 126 99 128 127 134 142 169 161 157 155 168 171 182 183 185 180
231 229 227 225 217 224 227 257 256 243 216 192 204 220 197 181 179 195 214 199 197 215 211 227 234 219 189 272 219 261 247 205 229 172 204 208 215 185 176 157 145 179 190 190 187 189 191 206 196 194 193 194 196 185
226 222 220 218 211 214 238 253 208 185 189 198 199 192 167 190 204 218 201 200 220 223 183 180 186 199 179 271 305 216 252 268 212 146 209 226 197 172 164 169 166 204 213 215 217 216 214 213 215 207 195 180 187 175
206 204 205 205 202 209 233 235 168 199 160 191 210 192 198 199 206 221 196 189 196 192 152 157 154 174 163 187 175 252 230 251 250 218 208 178 135 151 147 159 158 189 204 213 214 215 220 216 208 205 203 176 185 177
189 194 194 190 190 205 205 202 192 194 192 236 193 199 224 201 224 216 230 54 97 153 177 171 139 168 148 173 222 248 205 261 198 217 198 140 149 146 159 150 151 120 141 183 196 201 208 212 213 207 207 200 194 193
175 176 180 180 184 184 199 194 193 175 218 242 225 242 223 247 261 281 34 89 101 145 166 138 162 123 113 140 213 257 227 200 197 150 110 134 144 143 144 147 131 107 120 160 182 193 197 192 192 194 199 201 201 193
163 158 172 179 178 155 141 139 145 204 267 251 245 274 303 315 292 272 205 206 208 158 135 109 108 101 127 235 224 214 187 261 58 105 131 138 138 137 126 121 115 107 105 137 174 181 189 193 189 190 190 187 187 185
137 161 172 157 149 133 135 151 195 223 240 253 288 269 267 295 333 291 292 282 158 164 162 170 184 168 209 258 202 266 47 73 101 119 132 143 140 116 112 106 97 95 93 100 131 165 178 175 178 179 181 179 177 174
124 147 143 141 131 114 151 233 258 249 249 217 240 245 333 261 227 234 211 223 182 177 189 204 159 164 188 237 192 116 109 99 116 127 140 138 133 131 116 97 82 76 75 78 84 103 108 138 157 165 169 171 167 160
139 141 142 154 175 211 220 212 240 263 214 243 12 58 354 185 210 174 188 185 181 195 233 222 209 201 173 94 126 112 121 133 145 150 154 162 165 171 130 78 61 61 65 69 82 90 120 146 140 142 159 160 154 156
134 130 125 132 178 265 234 208 235 272 262 15 350 223 200 128 126 145 145 153 178 207 212 208 155 171 166 10 10 34 85 129 172 184 192 191 197 201 204 201 164 5 26 65 87 118 124 151 146 159 158 165 155 157
111 111 63 67 258 289 300 313 282 318 323 330 349 50 135 126 142 162 160 194 211 237 189 63 97 77 6 308 280 270 257 245 242 238 242 223 210 212 206 232 233 228 220 187 205 180 159 183 157 167 161 156 154 158
100 30 11 1 330 339 289 319 298 327 295 315 12 52 51 79 82 50 336 238 241 46 5 344 329 326 291 277 270 260 255 260 243 241 236 232 230 221 215 214 213 214 215 199 210 203 176 154 166 170 174 170 167 156
13 26 27 18 337 331 306 335 312 342 315 11 341 277 350 353 15 325 251 240 78 42 349 315 312 296 286 279 271 263 255 246 241 236 232 230 228 223 220 218 215 214 211 206 202 193 174 184 176 177 168 164 164 159
23 32 6 356 333 319 318 316 307 302 302 264 282 307 31 353 309 247 272 119 66 342 327 317 314 308 301 287 273 269 259 246 238 233 227 221 218 218 215 213 212 210 200 200 192 183 198 186 184 186 167 160 160 156
1 10 335 288 311 305 11 0 322 298 332 353 323 0 346 298 286 16 4 346 340 325 321 326 325 320 304 300 295 260 245 231 225 224 222 216 214 205 204 204 201 204 194 188 187 184 195 187 182 182 173 161 150 145
57 38 20 6 2 9 349 339 9 355 345 1 12 340 350 21 3 4 7 332 322 329 337 337 333 332 335 326 308 305 205 210 207 210 214 206 201 195 186 185 188 199 188 181 180 187 182 171 170 163 149 144 141 145
57 52 9 11 326 313 286 341 11 28 17 10 357 348 14 5 14 359 320 341 345 2 6 3 354 342 320 316 10 327 205 193 199 203 195 183 185 182 176 178 181 180 172 169 173 176 156 142 151 143 142 146 148 152
50 54 55 51 50 45 9 26 23 14 10 355 351 25 33 9 347 313 327 11 16 17 24 50 66 74 71 57 76 69 126 147 154 159 149 149 161 163 157 164 158 157 164 167 171 168 161 159 163 159 143 146 149 152
58 46 28 45 70 63 33 17 23 23 6 10 17 35 27 2 11 5 21 24 30 38 52 63 65 65 64 82 82 100 106 117 127 133 133 135 138 143 152 154 148 159 168 166 169 162 162 158 152 146 145 148 148 147
21 15 76 55 58 55 38 55 54 51 52 43 27 23 39 49 47 44 36 35 41 39 42 55 55 49 56 65 83 89 88 119 123 124 127 133 137 135 145 147 147 155 157 147 142 149 150 141 132 137 145 144 145 147
60 69 76 76 73 96 91 79 67 60 57 48 39 30 26 37 47 46 46 40 38 47 45 40 42 41 54 71 86 89 88 93 107 108 115 125 130 132 135 132 133 135 139 143 137 139 140 133 142 146 145 144 145 147
88 104 94 95 105 101 104 60 55 51 42 35 24 23 32 35 33 24 30 28 33 34 34 34 34 42 54 73 85 87 90 90 96 99 110 117 118 115 120 121 127 126 124 123 122 125 138 142 142 143 145 147 148 150
94 95 98 97 106 105 79 101 88 74 57 52 36 28 27 41 48 19 25 27 28 27 26 34 41 49 53 57 76 81 88 90 93 93 92 95 100 104 108 113 120 120 117 120 126 131 134 136 137 139 141 143 145 145